Location: Ferchesar
(52.6477°N, 12.4298°E)
Time: 03:46:16
(UTC+01:00)

Vanguard 1 - Pass Details

Date: 15 December 2021
Orbit: 652 x 3830 km, 34.2° (Epoch: 21 January)

Event Time Altitude Azimuth Distance (km) Brightness Sun altitude
Rises 20:17:11 0° 209° (SSW) 5,562 14.1 -38.1°
Reaches altitude 10° 20:21:00 10° 199° (SSW) 4,981 13.7 -38.7°
Enters shadow 20:28:55 27° 167° (SSE) 4,459 13.1 -39.8°
